This is the latest recevied weather packets stored in our database for station/object YO8TVD-10. If no packets are shown the sender has not sent any weather packets the latest 10 day(s).
| Time | Temp. | Humidity | Pressure | Rain* | Wind** | Luminosity | Snow |
|---|---|---|---|---|---|---|---|
| 1788167999 | 27.78° C | 54% | 975.5 hPa | - | - | - | - |
| 1788167099 | 27.78° C | 54% | 975.5 hPa | - | - | - | - |
| 1788166199 | 27.78° C | 54% | 975.7 hPa | - | - | - | - |
| 1788165299 | 27.78° C | 55% | 975.7 hPa | - | - | - | - |
| 1788164403 | 27.78° C | 56% | 975.7 hPa | - | - | - | - |
| 1788163503 | 27.22° C | 56% | 975.8 hPa | - | - | - | - |
| 1788162603 | 27.22° C | 55% | 975.8 hPa | - | - | - | - |
| 1788161703 | 27.78° C | 57% | 975.8 hPa | - | - | - | - |
| 1788160802 | 27.78° C | 57% | 975.8 hPa | - | - | - | - |
| 1788159902 | 27.78° C | 57% | 975.8 hPa | - | - | - | - |
| 1788159002 | 27.22° C | 56% | 975.7 hPa | - | - | - | - |
| 1788158102 | 27.22° C | 57% | 975.8 hPa | - | - | - | - |
| 1788157202 | 26.67° C | 57% | 975.8 hPa | - | - | - | - |
| 1788156301 | 26.67° C | 57% | 975.8 hPa | - | - | - | - |
| 1788155401 | 26.11° C | 57% | 975.9 hPa | - | - | - | - |
| 1788154501 | 26.11° C | 57% | 975.9 hPa | - | - | - | - |
| 1788153601 | 25.56° C | 58% | 975.8 hPa | - | - | - | - |
| 1788152700 | 25.56° C | 58% | 975.9 hPa | - | - | - | - |
| 1788151800 | 26.11° C | 60% | 975.9 hPa | - | - | - | - |
| 1788150900 | 25.56° C | 59% | 975.8 hPa | - | - | - | - |
| 1788150000 | 25.56° C | 60% | 975.8 hPa | - | - | - | - |
| 1788149100 | 25.56° C | 59% | 975.7 hPa | - | - | - | - |
| 1788148199 | 25.56° C | 59% | 975.5 hPa | - | - | - | - |
| 1788147299 | 25.56° C | 59% | 975.6 hPa | - | - | - | - |
| 1788146399 | 25.56° C | 60% | 975.7 hPa | - | - | - | - |
* Rain since midnight (hover to see other rain measurements)
** Current wind speed in m/s (hover to see current wind gust speed)